KUIPER-00123 (65952 NORAD) Tracking and Keplerian Element Data

This shows tracking and keplerian element data for the satellite.

Feedback or suggestion? Click here.




ElementValue
Catalog65952
NameKUIPER-00123
Epoch Orbit483
Epoch Day354.25003472
Epoch Year2025
RAAN354.3601
Inclination51.8993
Eccentricity0.0001646
Argument of Perigee135.5336
Mean Anonmoly92.3751
Mean Motion14.79651963
Decay Rate-0.00055746
L11 65952U 25228F 25354.25003472 -.00055746 00000+0 -73932-2 0 9992
L22 65952 51.8993 354.3601 0001646 135.5336 92.3751 14.79651963 4832



Live tracking and technical data element details for KUIPER-00123 (NORAD 65952). KUIPER-00123 can be tracked NOW for your location showing map with azimuth and elevation plus other details from your city location.







IsCatalogInMostPopularTable: catalog: 65952, numindb: 4
Update: records affected: 1



GetName: 65952 KUIPER-00123

Hit Count: updated at: Mon, 20 Apr 2026 10:38:53 GMT